Weather History for KP59 - March, 2012

Change the Weather History Date:

Saturday, March 3, 2012

  Actual Average Record
Temperature  
Mean Temperature 24 °F -  
Max Temperature 32 °F 25 °F 37 °F (2001)
Min Temperature 16 °F 13 °F -20 °F (2003)
Degree Days  
Heating Degree Days 41    
Moisture  
Dew Point 18 °F    
Average Humidity 86    
Maximum Humidity 96    
Minimum Humidity 77    
Precipitation  
Precipitation 0.06 in - - ()
Sea Level Pressure  
Sea Level Pressure 29.66 in    
Wind  
Wind Speed 24 mph (ENE)    
Max Wind Speed 31 mph    
Max Gust Speed 40 mph    
Averages and records for this station are not official NWS values.
T = Trace of Precipitation, MM = Missing Value Source: NWS Daily Summary

Daily Weather History Graph

Daily Weather History Graph

Search for Another Location

Airport or City:

Trip Planner

Search our weather history database for the weather conditions in past years. The results will help you decide how hot, cold, wet, or windy it might be!

Date:

Astronomy

Mar. 03, 2012 Rise Set
Actual Time 7:27 AM EST 6:40 PM EST
Civil Twilight 6:56 AM EST 7:11 PM EST
Nautical Twilight 6:20 AM EST 7:46 PM EST
Astronomical Twilight 5:45 AM EST 8:22 PM EST
Moon 1:32 PM EST (3/3) 4:21 AM EST (3/3)
Length of Visible Light 12h 14m
Length of Day
11h 13m
Waxing Gibbous, 75% of the Moon is Illuminated
Mar 3
Waxing Gibbous
Mar 8
Full
Mar 14
Last Quarter
Mar 22
New
Mar 30
First Quarter

Hourly Weather History & Observations

Time (EST) Temp. Windchill Dew Point Humidity Pressure Visibility Wind Dir Wind Speed Gust Speed Precip Events Conditions
12:51 AM 32.0 °F 18.9 °F 30.9 °F 96% 29.46 in - ENE 24.2 mph 29.9 mph 0.03 in   Unknown
1:51 AM 30.0 °F 16.6 °F 28.9 °F 96% 29.45 in - East 23.0 mph 29.9 mph N/A   Unknown
2:51 AM 28.9 °F 15.4 °F 27.0 °F 92% 29.44 in - ENE 21.9 mph 32.2 mph N/A   Unknown
3:51 AM 28.0 °F 13.3 °F 25.0 °F 88% 29.44 in - ENE 25.3 mph 32.2 mph N/A   Unknown
4:51 AM 27.0 °F 12.5 °F 24.1 °F 89% 29.45 in - ENE 23.0 mph 33.4 mph 0.01 in   Unknown
5:51 AM 25.0 °F 8.1 °F 23.0 °F 92% 29.46 in - ENE 29.9 mph 34.5 mph N/A   Unknown
6:51 AM 24.1 °F 7.7 °F 21.9 °F 91% 29.49 in - ENE 26.5 mph 40.3 mph N/A   Unknown
7:51 AM 23.0 °F 5.4 °F 19.9 °F 88% 29.52 in - ENE 29.9 mph 38.0 mph N/A   Unknown
8:51 AM 23.0 °F 5.7 °F 19.9 °F 88% 29.55 in - ENE 28.8 mph 39.1 mph N/A   Unknown
9:51 AM 21.9 °F 3.7 °F 19.0 °F 89% 29.58 in - ENE 31.1 mph 38.0 mph N/A   Unknown
10:51 AM 21.9 °F 5.8 °F 18.0 °F 85% 29.62 in - ENE 23.0 mph 32.2 mph 0.01 in   Unknown
11:51 AM 21.0 °F 5.0 °F 17.1 °F 85% 29.66 in - ENE 21.9 mph 32.2 mph N/A   Unknown
12:51 PM 19.9 °F 3.2 °F 16.0 °F 85% 29.69 in - ENE 23.0 mph 28.8 mph 0.01 in   Unknown
1:51 PM 19.9 °F 3.2 °F 16.0 °F 85% 29.71 in - ENE 23.0 mph 28.8 mph N/A   Unknown
2:51 PM 19.0 °F 2.0 °F 14.0 °F 81% 29.73 in - ENE 23.0 mph 31.1 mph N/A   Unknown
3:51 PM 19.0 °F 1.6 °F 14.0 °F 81% 29.75 in - ENE 24.2 mph 31.1 mph N/A   Unknown
4:51 PM 19.0 °F 1.6 °F 15.1 °F 85% 29.78 in - ENE 24.2 mph 28.8 mph N/A   Unknown
5:51 PM 19.0 °F 4.0 °F 14.0 °F 81% 29.82 in - ENE 17.3 mph 27.6 mph N/A   Unknown
6:51 PM 19.0 °F 3.2 °F 14.0 °F 81% 29.84 in - ENE 19.6 mph 27.6 mph N/A   Unknown
7:51 PM 18.0 °F 2.6 °F 12.9 °F 81% 29.87 in - ENE 17.3 mph - N/A   Unknown
8:51 PM 18.0 °F 2.2 °F 12.9 °F 81% 29.88 in - ENE 18.4 mph 25.3 mph N/A   Unknown
9:51 PM 17.1 °F 1.5 °F 10.9 °F 77% 29.89 in - East 17.3 mph - N/A   Unknown
10:51 PM 16.0 °F 1.1 °F 10.9 °F 81% 29.90 in - East 15.0 mph 24.2 mph N/A   Unknown
11:51 PM 16.0 °F 1.1 °F 10.0 °F 77% 29.91 in - East 15.0 mph - N/A   Unknown